Location: Zagreb
(45.8000°N, 16.0000°E)
Time: 20:16:17
(UTC+01:00)

DX 1 - Pass Details

Date: 30 October 2020
Orbit: 619 x 630 km, 98.5° (Epoch: 01 December)

Event Time Altitude Azimuth Distance (km) Brightness Sun altitude
Rises 05:55:52 0° 185° (S) 2,886 ? -7.2°
Reaches altitude 10° 05:58:10 10° 193° (SSW) 1,983 ? -6.8°
Maximum altitude 06:02:11 37° 262° (W) 967 ? -6.1°
Drops below altitude 10° 06:06:13 10° 330° (NNW) 1,996 ? -5.4°
Sets 06:08:33 0° 339° (NNW) 2,906 ? -5.0°
